#timestamp,LO_Frequency,Hit,StdDev 
1545714015.1,286046998.6,N
1545714035.9,286046999.0,N
1545714055.7,286046998.4,N
1545714075.6,286046998.9,N
1545714095.4,286046997.0,N
1545714115.2,286046997.1,N
1545714135.1,286046998.8,N
1545714136.0,286046998.8,N
1545714155.8,286046998.5,N
1545714175.6,286047000.7,N
1545714195.5,286047001.4,N
1545714215.3,286047002.2,N
1545714235.2,286046999.8,N
1545714255.9,286046998.6,N
1545714275.7,286047000.7,N
1545714295.6,286046999.7,N
1545714315.4,286047000.3,N
1545714335.3,286047000.1,N
1545714355.1,286047002.8,N
1545714356.0,286047002.8,N
1545714375.8,286046999.9,N
1545714395.7,286047002.6,N
1545714415.5,286047002.2,N
1545714435.3,286046999.8,N
1545714455.2,286047000.0,N
1545714475.0,286047002.8,N
1545714475.9,286047002.8,N
1545714495.8,286047002.5,N
1545714515.6,286046999.7,N
1545714535.4,286047001.9,N
1545714555.3,286047002.8,N
1545714575.1,286047002.0,N
1545714595.9,286047000.6,N
1545714615.7,286047003.7,N
1545714635.5,286047002.6,N
1545714655.4,286047002.6,N
1545714675.2,286047002.2,N
1545714695.0,286047002.5,N
1545714695.9,286047002.5,N
1545714715.8,286047000.4,N
1545714735.6,286047000.4,N
1545714755.5,286047000.8,N
1545714775.3,286047001.6,N
1545714795.1,286047003.5,N
1545714815.9,286047003.8,Y
1545714835.7,286047001.7,P
1545714855.6,286047000.1,N
1545714875.4,286046999.8,N
1545714895.2,286047001.7,N
1545714915.1,286047004.2,Y
1545714916.0,286047004.2,P
1545714935.8,286047002.1,N
1545714955.6,286046999.7,N
1545714975.5,286046999.9,N
1545714995.3,286047002.5,N
1545715015.2,286047002.6,N
1545715035.9,286047000.2,N
1545715055.7,286046998.1,N
1545715075.6,286046999.3,N
1545715095.4,286046997.2,N
1545715115.2,286046998.3,N
1545715135.1,286046997.3,N
1545715136.0,286046997.3,N
1545715155.8,286046997.4,N
1545715175.7,286046997.8,N
1545715195.5,286046998.8,N
1545715215.3,286047001.2,N
1545715235.2,286047001.2,N
1545715255.0,286047000.8,N
1545715255.9,286047000.8,N
1545715275.8,286047000.9,N
1545715295.6,286046999.0,N
1545715315.4,286046998.8,N
1545715335.3,286046998.8,N
1545715355.1,286046997.1,N
1545715375.8,286046996.5,N
1545715395.7,286047001.2,N
1545715415.5,286047000.6,N
1545715435.4,286046998.2,N
1545715455.2,286047001.1,N
1545715475.0,286046996.5,N
1545715475.9,286046996.5,N
1545715495.8,286046997.4,N
1545715515.6,286046998.6,N
1545715535.5,286046999.3,N
1545715555.3,286046999.0,N
1545715575.1,286046998.6,N
1545715595.9,286046998.8,N
1545715615.7,286047002.4,N
1545715635.5,286047002.7,N
1545715655.4,286047004.4,N
1545715675.2,286047002.3,N
1545715695.1,286047000.6,N
1545715696.0,286047000.6,N
1545715715.8,286046999.7,N
1545715735.6,286047000.7,N
1545715755.5,286047000.6,N
1545715775.3,286047002.2,N
1545715795.1,286047000.1,N
1545715815.9,286047000.2,N
1545715835.7,286047000.2,N
1545715855.6,286047002.1,N
1545715875.4,286047001.1,N
1545715895.2,286047000.5,N
1545715915.1,286047001.8,N
1545715916.0,286047001.8,N
1545715935.8,286047001.7,N
1545715955.7,286047004.4,N
1545715975.5,286047001.9,N
1545715995.3,286047001.1,N
1545716015.2,286046999.0,N
1545716035.0,286047000.7,N
1545716035.9,286047000.7,N
1545716055.7,286046998.7,N
1545716075.6,286046999.0,N
1545716095.4,286047000.3,N
1545716115.3,286046998.6,N
1545716135.1,286046996.6,N
1545716136.0,286046996.6,N
1545716155.8,286046996.8,N
1545716175.7,286047000.6,N
1545716195.5,286046999.8,N
1545716215.4,286046999.9,N
1545716235.2,286047000.1,N
1545716255.0,286047000.4,N
1545716255.9,286047000.4,N
1545716275.8,286047001.8,N
1545716295.6,286047004.1,N
1545716315.4,286047000.5,N
1545716335.3,286046999.5,N
1545716355.1,286046996.7,N
1545716375.9,286046997.3,N
1545716395.7,286046997.9,N
1545716415.5,286046997.8,N
1545716435.4,286046997.6,N
1545716455.2,286046996.3,N
1545716475.0,286046995.7,N
1545716476.0,286046995.7,N
1545716495.8,286046995.2,N
1545716515.6,286046993.7,Y
1545716535.5,286046996.3,P
1545716555.3,286046993.5,P
1545716575.1,286046992.5,P
1545716595.9,286046994.8,N
1545716615.7,286046994.3,N
1545716635.6,286046994.7,N
1545716655.4,286046995.9,N
1545716675.2,286046995.6,N
1545716695.1,286046997.3,N
1545716696.0,286046997.3,N
1545716715.8,286046997.3,N
1545716735.7,286046996.5,N
1545716755.5,286046996.6,N
1545716775.3,286046996.8,N
1545716795.2,286046997.0,N
1545716815.0,286046996.9,N
1545716815.9,286046996.9,N
1545716835.7,286046996.5,N
1545716855.6,286046999.5,N
1545716875.4,286046994.9,Y
1545716895.3,286047000.4,P
1545716915.1,286047000.2,N
1545716916.0,286047000.2,N
1545716935.8,286046999.7,N
1545716955.7,286046999.9,N
1545716975.5,286047002.8,N
1545716995.4,286047004.4,N
1545717015.2,286047004.4,N
1545717035.0,286047001.5,N
1545717035.9,286047001.5,N
1545717055.8,286047002.0,N
1545717075.6,286047002.1,N
1545717095.5,286047001.6,N
1545717115.3,286047002.6,N
1545717135.1,286047001.7,N
1545717155.9,286047001.5,N
1545717175.7,286047003.8,N
1545717195.5,286047003.5,N
1545717215.4,286047006.0,Y
1545717235.2,286047000.0,P
1545717255.1,286046998.3,N
1545717256.0,286046998.3,N
1545717275.8,286046999.9,N
1545717295.6,286046998.7,N
1545717315.5,286046999.9,N
1545717335.3,286047002.6,N
1545717355.1,286047002.2,N
1545717375.9,286046999.9,N
1545717395.7,286047003.2,N
1545717415.6,286047004.2,N
1545717435.4,286047004.2,N
1545717455.2,286047003.9,N
1545717475.1,286047003.8,N
1545717476.0,286047003.8,N
1545717495.8,286047003.2,N
1545717515.6,286047005.6,N
1545717535.5,286047004.4,N
1545717555.3,286047002.8,N
1545717575.2,286046999.7,N
1545717595.9,286047001.5,N
